Date String (YYYY-MM-DD hh:mm:ss) UTC,Instrument flags,absolute air pressure of the measurement (hPa),sample flow rate (lpm),inlet stack bypass flow (lpm),air temperature of the measurement (°C),ambient temperature measured by the external sensor (°C),aerosol sample conditioner tube jacket temperature (°C),OPC LED temperature (°C),internal box temperature (°C),relative humidity of the measurement (%),span deviation,mass concentration of particles derived from Lorenz-Mie calculation of OPC scattering (μg/m³),mass concentration of particles derived from Lorenz-Mie calculation of OPC scattering (μg/m³),mass concentration of particles derived from Lorenz-Mie calculation of OPC scattering (μg/m³)
DateTimeUTC,F1_M11,P_M11,Q1_M11,Q2_M11,T1_M11,T2_M11,T3_M11,T4_M11,T5_M11,U1_M11,ZSPAN_M11,X2_M11,X0_M11,X1_M11
2023-11-12 16:00:00,SystemResetWarning,0837.1,5.00,000.00,024.8,024.2,000.0,033.0,026.4,8.7,0000.0,0002.36,0004.60,0001.50
2023-11-12 16:01:00,SystemResetWarning,0837.0,5.00,000.00,024.8,024.2,000.0,033.0,026.4,8.6,0000.0,0002.39,0004.65,0001.52
2023-11-12 16:02:00,SystemResetWarning,0837.1,5.00,000.00,024.9,024.2,000.0,033.0,026.5,8.9,0000.0,0002.40,0004.61,0001.51
2023-11-12 16:03:00,SystemResetWarning,0837.1,5.00,000.00,024.9,024.2,000.0,033.0,026.5,8.9,0000.0,0002.36,0004.51,0001.50
2023-11-12 16:04:00,SystemResetWarning,0837.1,5.00,000.00,024.9,024.3,000.0,033.0,026.5,8.6,0000.0,0002.32,0006.20,0001.50
2023-11-12 16:05:00,SystemResetWarning,0837.1,4.99,000.00,024.9,024.3,000.0,033.1,026.5,8.2,0000.0,0002.28,0005.91,0001.49
2023-11-12 16:06:00,SystemResetWarning,0837.2,5.00,000.00,025.0,024.3,000.0,033.1,026.6,8.3,0000.0,0002.32,0006.19,0001.50
2023-11-12 16:07:00,SystemResetWarning,0837.2,5.00,000.00,025.0,024.3,000.0,033.1,026.6,8.4,0000.0,0002.34,0006.29,0001.52
2023-11-12 16:08:00,SystemResetWarning,0837.2,4.99,000.00,025.0,024.4,000.0,033.1,026.6,8.1,0000.0,0002.35,0006.21,0001.54
2023-11-12 16:09:00,SystemResetWarning,0837.1,5.00,000.00,025.0,024.4,000.0,033.1,026.6,7.8,0000.0,0002.31,0006.15,0001.54
2023-11-12 16:10:00,SystemResetWarning,0837.1,5.00,000.00,025.0,024.4,000.0,033.1,026.6,7.4,0000.0,0002.26,0006.13,0001.52
2023-11-12 16:11:00,SystemResetWarning,0837.1,5.01,000.00,025.1,024.4,000.0,033.2,026.6,7.8,0000.0,0002.30,0007.32,0001.51
2023-11-12 16:12:00,SystemResetWarning,0837.1,5.00,000.00,025.1,024.4,000.0,033.2,026.6,7.9,0000.0,0002.34,0007.41,0001.50
2023-11-12 16:13:00,SystemResetWarning,0837.2,5.00,000.00,025.1,024.4,000.0,033.2,026.7,7.6,0000.0,0002.32,0007.42,0001.51
2023-11-12 16:14:00,SystemResetWarning,0837.2,5.00,000.00,025.1,024.4,000.0,033.2,026.7,7.3,0000.0,0002.35,0007.82,0001.52
2023-11-12 16:15:00,SystemResetWarning,0837.2,4.99,000.00,025.1,024.5,000.0,033.2,026.7,7.4,0000.0,0002.37,0006.91,0001.51
2023-11-12 16:16:00,SystemResetWarning,0837.2,4.99,000.00,025.1,024.5,000.0,033.3,026.7,7.6,0000.0,0002.37,0006.93,0001.50
2023-11-12 16:17:00,SystemResetWarning,0837.2,5.00,000.00,025.2,024.5,000.0,033.3,026.7,7.7,0000.0,0002.38,0006.78,0001.51
2023-11-12 16:18:00,SystemResetWarning,0837.2,5.00,000.00,025.2,024.5,000.0,033.3,026.8,7.5,0000.0,0002.38,0006.56,0001.49
2023-11-12 16:19:00,SystemResetWarning,0837.2,5.00,000.00,025.2,024.5,000.0,033.3,026.8,8.1,0000.0,0002.38,0006.56,0001.48
2023-11-12 16:20:00,SystemResetWarning,0837.2,5.00,000.00,025.2,024.5,000.0,033.3,026.8,8.2,0000.0,0002.34,0006.47,0001.48
2023-11-12 16:21:00,SystemResetWarning,0837.3,5.00,000.00,025.2,024.6,000.0,033.4,026.8,8.2,0000.0,0002.31,0006.38,0001.48
2023-11-12 16:22:00,SystemResetWarning,0837.4,5.00,000.00,025.3,024.6,000.0,033.4,026.8,8.7,0000.0,0002.25,0006.19,0001.47
2023-11-12 16:23:00,SystemResetWarning,0837.4,5.00,000.00,025.3,024.6,000.0,033.4,026.8,8.7,0000.0,0002.22,0006.57,0001.47
2023-11-12 16:24:00,SystemResetWarning,0837.3,5.00,000.00,025.3,024.6,000.0,033.4,026.8,8.1,0000.0,0002.23,0006.64,0001.46
2023-11-12 16:25:00,SystemResetWarning,0837.3,5.01,000.00,025.3,024.6,000.0,033.4,026.8,8.5,0000.0,0002.21,0006.51,0001.45
2023-11-12 16:26:00,SystemResetWarning,0837.2,5.01,000.00,025.3,024.6,000.0,033.4,026.9,8.6,0000.0,0002.22,0006.57,0001.44
2023-11-12 16:27:00,SystemResetWarning,0837.2,5.00,000.00,025.3,024.6,000.0,033.5,026.9,8.7,0000.0,0002.21,0006.46,0001.45
2023-11-12 16:28:00,SystemResetWarning,0837.2,5.00,000.00,025.3,024.6,000.0,033.5,026.9,9.1,0000.0,0002.17,0006.31,0001.46
2023-11-12 16:29:00,SystemResetWarning,0837.2,4.99,000.00,025.4,024.7,000.0,033.5,026.9,9.3,0000.0,0002.17,0006.58,0001.46
2023-11-12 16:30:00,SystemResetWarning,0837.2,5.00,000.00,025.4,024.7,000.0,033.5,027.0,9.3,0000.0,0002.23,0007.16,0001.47
2023-11-12 16:31:00,SystemResetWarning,0837.2,5.01,000.00,025.4,024.7,000.0,033.5,027.0,9.5,0000.0,0002.28,0007.33,0001.48
2023-11-12 16:32:00,SystemResetWarning,0837.2,5.00,000.00,025.4,024.8,000.0,033.6,027.0,9.6,0000.0,0002.31,0007.99,0001.49
2023-11-12 16:33:00,SystemResetWarning,0837.3,4.99,000.00,025.5,024.8,000.0,033.6,027.0,9.5,0000.0,0002.36,0008.13,0001.51
2023-11-12 16:34:00,SystemResetWarning,0837.3,4.99,000.00,025.5,024.8,000.0,033.6,027.0,9.3,0000.0,0002.36,0007.92,0001.52
2023-11-12 16:35:00,SystemResetWarning,0837.3,5.00,000.00,025.5,024.8,000.0,033.6,027.1,9.0,0000.0,0002.37,0008.33,0001.53
2023-11-12 16:36:00,SystemResetWarning,0837.4,5.00,000.00,025.5,024.8,000.0,033.6,027.1,9.3,0000.0,0002.35,0008.58,0001.53
2023-11-12 16:37:00,SystemResetWarning,0837.4,5.00,000.00,025.5,024.9,000.0,033.6,027.1,9.5,0000.0,0002.35,0008.48,0001.55
2023-11-12 16:38:00,SystemResetWarning,0837.4,5.00,000.00,025.6,024.9,000.0,033.7,027.1,10.1,0000.0,0002.46,0008.63,0001.57
2023-11-12 16:39:00,SystemResetWarning,0837.5,5.00,000.00,025.6,024.9,000.0,033.7,027.1,10.0,0000.0,0002.55,0008.75,0001.57
2023-11-12 16:40:00,SystemResetWarning,0837.5,5.00,000.00,025.6,024.9,000.0,033.7,027.1,9.9,0000.0,0002.53,0008.64,0001.57
2023-11-12 16:41:00,SystemResetWarning,0837.5,5.01,000.00,025.6,024.9,000.0,033.7,027.1,9.8,0000.0,0002.53,0008.35,0001.56
2023-11-12 16:42:00,SystemResetWarning,0837.5,5.00,000.00,025.6,024.9,000.0,033.7,027.1,9.8,0000.0,0002.46,0008.22,0001.56
2023-11-12 16:43:00,SystemResetWarning,0837.5,5.00,000.00,025.6,024.9,000.0,033.7,027.1,9.5,0000.0,0002.53,0007.76,0001.58
2023-11-12 16:44:00,SystemResetWarning,0837.5,5.00,000.00,025.6,024.9,000.0,033.8,027.2,9.3,0000.0,0002.57,0007.95,0001.59
2023-11-12 16:45:00,SystemResetWarning,0837.5,5.00,000.00,025.6,024.9,000.0,033.8,027.2,9.1,0000.0,0002.61,0008.66,0001.61
2023-11-12 16:46:00,SystemResetWarning,0837.5,5.00,000.00,025.7,024.9,000.0,033.8,027.2,8.9,0000.0,0002.66,0009.49,0001.64
2023-11-12 16:47:00,SystemResetWarning,0837.5,5.00,000.00,025.7,025.0,000.0,033.8,027.2,9.0,0000.0,0002.76,0010.00,0001.69
2023-11-12 16:48:00,SystemResetWarning,0837.5,5.00,000.00,025.7,025.0,000.0,033.8,027.3,8.9,0000.0,0002.77,0009.83,0001.71
2023-11-12 16:49:00,SystemResetWarning,0837.6,5.00,000.00,025.7,025.0,000.0,033.9,027.2,8.9,0000.0,0002.72,0009.81,0001.72
2023-11-12 16:50:00,SystemResetWarning,0837.6,5.00,000.00,025.7,025.0,000.0,033.9,027.2,8.8,0000.0,0002.65,0009.78,0001.72
2023-11-12 16:51:00,SystemResetWarning,0837.6,5.00,000.00,025.8,025.1,000.0,033.9,027.3,8.6,0000.0,0002.67,0009.87,0001.72
2023-11-12 16:52:00,SystemResetWarning,0837.6,5.00,000.00,025.8,025.1,000.0,033.9,027.3,8.6,0000.0,0002.66,0009.94,0001.73
2023-11-12 16:53:00,SystemResetWarning,0837.6,5.00,000.00,025.8,025.1,000.0,033.9,027.4,8.4,0000.0,0002.73,0010.14,0001.75
2023-11-12 16:54:00,SystemResetWarning,0837.6,5.00,000.00,025.8,025.1,000.0,033.9,027.4,8.8,0000.0,0002.68,0010.98,0001.75
2023-11-12 16:55:00,SystemResetWarning,0837.6,5.00,000.00,025.8,025.1,000.0,034.0,027.4,9.1,0000.0,0002.68,0010.71,0001.75
2023-11-12 16:56:00,SystemResetWarning,0837.6,5.00,000.00,025.8,025.1,000.0,034.0,027.4,8.9,0000.0,0002.62,0009.71,0001.74
2023-11-12 16:57:00,SystemResetWarning,0837.6,5.00,000.00,025.9,025.2,000.0,034.0,027.4,9.1,0000.0,0002.58,0008.40,0001.73
2023-11-12 16:58:00,SystemResetWarning,0837.7,5.00,000.00,025.9,025.2,000.0,034.0,027.4,9.3,0000.0,0002.49,0007.62,0001.70
2023-11-12 16:59:00,SystemResetWarning,0837.7,5.00,000.00,025.9,025.2,000.0,034.0,027.4,9.2,0000.0,0002.46,0007.63,0001.70
